Time,TemperatureF,DewpointF,PressureIn,WindDirection,WindDirectionDegrees,WindSpeedMPH,WindSpeedGustMPH,Humidity,HourlyPrecipIn,Conditions,Clouds,dailyrainin,SoftwareType,DateUTC
2013-02-15 00:02:00,71.0,70.0,29.41,West,266,2.0,5.0,98,0.00,,,0.00,,2013-02-14 22:02:00,
2013-02-15 00:11:00,71.0,70.0,29.41,NW,306,2.0,3.0,98,0.00,,,0.00,,2013-02-14 22:11:00,
2013-02-15 00:21:00,71.0,70.0,29.41,NW,306,2.0,3.0,98,0.00,,,0.00,,2013-02-14 22:21:00,
2013-02-15 00:31:00,71.0,70.0,29.41,WNW,282,3.0,3.0,98,0.00,,,0.00,,2013-02-14 22:31:00,
2013-02-15 00:41:00,71.0,70.0,29.41,WNW,282,3.0,3.0,98,0.00,,,0.00,,2013-02-14 22:41:00,
2013-02-15 00:51:00,71.0,70.0,29.41,WNW,282,3.0,3.0,98,0.00,,,0.00,,2013-02-14 22:51:00,
2013-02-15 01:01:00,71.0,70.0,29.41,SSW,208,0.0,2.0,98,0.00,,,0.00,,2013-02-14 23:01:00,
2013-02-15 01:11:00,71.0,70.0,29.41,SSW,208,0.0,2.0,98,0.00,,,0.00,,2013-02-14 23:11:00,
2013-02-15 01:21:00,71.0,70.0,29.41,West,270,3.0,5.0,98,0.00,,,0.00,,2013-02-14 23:21:00,
2013-02-15 01:31:00,71.0,70.0,29.41,NW,314,4.0,7.0,98,0.00,,,0.00,,2013-02-14 23:31:00,
2013-02-15 01:41:00,71.0,70.0,29.41,NW,314,4.0,7.0,98,0.00,,,0.00,,2013-02-14 23:41:00,
2013-02-15 01:52:00,71.0,70.0,29.41,WNW,284,3.0,7.0,98,0.00,,,0.00,,2013-02-14 23:52:00,
2013-02-15 02:01:00,71.0,70.0,29.41,NW,314,3.0,6.0,98,0.00,,,0.00,,2013-02-15 00:01:00,
2013-02-15 02:11:00,71.0,70.0,29.41,NW,314,3.0,6.0,98,0.00,,,0.00,,2013-02-15 00:11:00,
2013-02-15 02:21:00,71.0,70.0,29.41,North,0,3.0,5.0,98,0.00,,,0.00,,2013-02-15 00:21:00,
2013-02-15 02:31:00,71.0,70.0,29.41,NW,310,4.0,6.0,98,0.00,,,0.00,,2013-02-15 00:31:00,
2013-02-15 02:41:00,71.0,70.0,29.41,NW,310,4.0,6.0,98,0.00,,,0.00,,2013-02-15 00:41:00,
2013-02-15 02:51:00,71.0,70.0,29.41,West,270,5.0,6.0,98,0.00,,,0.00,,2013-02-15 00:51:00,
2013-02-15 03:01:00,70.0,69.0,29.41,WNW,301,5.0,6.0,98,0.00,,,0.00,,2013-02-15 01:01:00,
2013-02-15 03:11:00,70.0,69.0,29.41,WNW,301,5.0,6.0,98,0.00,,,0.00,,2013-02-15 01:11:00,
2013-02-15 03:21:00,70.0,69.0,29.41,WNW,301,5.0,6.0,98,0.00,,,0.00,,2013-02-15 01:21:00,
2013-02-15 03:31:00,71.0,70.0,29.41,West,270,6.0,9.0,98,0.00,,,0.00,,2013-02-15 01:31:00,
2013-02-15 03:41:00,71.0,70.0,29.41,West,270,6.0,9.0,98,0.00,,,0.00,,2013-02-15 01:41:00,
2013-02-15 03:52:00,70.0,69.0,29.41,West,270,5.0,8.0,98,0.00,,,0.00,,2013-02-15 01:52:00,
2013-02-15 04:01:00,70.0,69.0,29.41,West,270,5.0,8.0,98,0.00,,,0.00,,2013-02-15 02:01:00,
2013-02-15 04:11:00,70.0,69.0,29.41,West,270,5.0,8.0,98,0.00,,,0.00,,2013-02-15 02:11:00,
2013-02-15 04:21:00,70.0,69.0,29.41,West,270,5.0,8.0,98,0.00,,,0.00,,2013-02-15 02:21:00,
2013-02-15 04:52:00,71.0,70.0,29.42,West,265,2.0,6.0,98,0.00,,,0.00,,2013-02-15 02:52:00,
2013-02-15 05:02:00,71.0,70.0,29.42,WSW,238,3.0,6.0,98,0.00,,,0.00,,2013-02-15 03:02:00,
2013-02-15 05:11:00,71.0,70.0,29.42,WSW,238,3.0,6.0,98,0.00,,,0.00,,2013-02-15 03:11:00,
2013-02-15 05:21:00,71.0,70.0,29.43,NW,305,5.0,7.0,98,0.00,,,0.00,,2013-02-15 03:21:00,
2013-02-15 05:32:00,70.0,69.0,29.43,WNW,294,7.0,9.0,98,0.00,,,0.00,,2013-02-15 03:32:00,
2013-02-15 05:41:00,70.0,69.0,29.43,WNW,294,7.0,9.0,98,0.00,,,0.00,,2013-02-15 03:41:00,
2013-02-15 05:51:00,70.0,69.0,29.43,West,281,6.0,10.0,98,0.00,,,0.00,,2013-02-15 03:51:00,
2013-02-15 06:01:00,70.0,69.0,29.43,West,260,5.0,8.0,98,0.00,,,0.00,,2013-02-15 04:01:00,
2013-02-15 06:11:00,70.0,69.0,29.43,West,260,5.0,8.0,98,0.00,,,0.00,,2013-02-15 04:11:00,
2013-02-15 06:21:00,70.0,69.0,29.44,WNW,297,5.0,9.0,98,0.00,,,0.00,,2013-02-15 04:21:00,
2013-02-15 06:31:00,70.0,69.0,29.44,WNW,303,4.0,7.0,98,0.00,,,0.00,,2013-02-15 04:31:00,
2013-02-15 06:41:00,70.0,69.0,29.44,WNW,303,4.0,7.0,98,0.00,,,0.00,,2013-02-15 04:41:00,
2013-02-15 06:51:00,69.0,68.0,29.44,West,281,5.0,8.0,98,0.00,,,0.00,,2013-02-15 04:51:00,
2013-02-15 07:01:00,69.0,68.0,29.44,West,281,5.0,8.0,98,0.00,,,0.00,,2013-02-15 05:01:00,
2013-02-15 07:11:00,69.0,68.0,29.44,West,281,5.0,8.0,98,0.00,,,0.00,,2013-02-15 05:11:00,
2013-02-15 07:22:00,70.0,69.0,29.45,NW,318,6.0,7.0,98,0.00,,,0.00,,2013-02-15 05:22:00,
2013-02-15 07:32:00,71.0,70.0,29.46,WNW,296,6.0,9.0,98,0.00,,,0.00,,2013-02-15 05:32:00,
2013-02-15 07:41:00,71.0,70.0,29.46,WNW,296,6.0,9.0,98,0.00,,,0.00,,2013-02-15 05:41:00,
2013-02-15 07:52:00,72.0,71.0,29.46,WSW,258,5.0,8.0,98,0.00,,,0.00,,2013-02-15 05:52:00,
2013-02-15 08:01:00,73.0,72.0,29.47,WNW,289,6.0,9.0,98,0.00,,,0.00,,2013-02-15 06:01:00,
2013-02-15 08:11:00,73.0,72.0,29.47,WNW,289,6.0,9.0,98,0.00,,,0.00,,2013-02-15 06:11:00,
2013-02-15 08:21:00,73.0,72.0,29.47,WNW,289,6.0,9.0,98,0.00,,,0.00,,2013-02-15 06:21:00,
2013-02-15 08:31:00,73.0,72.0,29.47,WNW,289,6.0,9.0,98,0.00,,,0.00,,2013-02-15 06:31:00,
2013-02-15 08:41:00,73.0,72.0,29.47,WNW,289,6.0,9.0,98,0.00,,,0.00,,2013-02-15 06:41:00,
2013-02-15 09:01:00,73.0,72.0,29.49,SW,220,3.0,6.0,98,0.01,,,0.01,,2013-02-15 07:01:00,
2013-02-15 09:11:00,73.0,72.0,29.49,SW,220,3.0,6.0,98,0.01,,,0.01,,2013-02-15 07:11:00,
2013-02-15 09:21:00,74.0,73.0,29.49,SSE,168,4.0,6.0,98,0.01,,,0.01,,2013-02-15 07:21:00,
2013-02-15 09:31:00,74.0,73.0,29.49,SSE,168,4.0,6.0,98,0.01,,,0.01,,2013-02-15 07:31:00,
2013-02-15 09:41:00,74.0,73.0,29.49,SSE,168,4.0,6.0,98,0.01,,,0.01,,2013-02-15 07:41:00,
2013-02-15 09:52:00,75.0,74.0,29.49,South,169,6.0,8.0,98,0.00,,,0.01,,2013-02-15 07:52:00,
2013-02-15 10:01:00,75.0,74.0,29.50,SSE,155,5.0,9.0,98,0.00,,,0.01,,2013-02-15 08:01:00,
2013-02-15 10:11:00,75.0,74.0,29.50,SSE,155,5.0,9.0,98,0.00,,,0.01,,2013-02-15 08:11:00,
2013-02-15 10:21:00,75.0,74.0,29.50,SW,218,6.0,9.0,98,0.00,,,0.01,,2013-02-15 08:21:00,
2013-02-15 10:31:00,73.0,72.0,29.50,WSW,239,7.0,10.0,98,0.00,,,0.01,,2013-02-15 08:31:00,
2013-02-15 10:41:00,73.0,72.0,29.50,WSW,239,7.0,10.0,98,0.00,,,0.01,,2013-02-15 08:41:00,
2013-02-15 10:52:00,73.0,72.0,29.50,WSW,239,7.0,10.0,98,0.00,,,0.01,,2013-02-15 08:52:00,
2013-02-15 11:01:00,71.0,70.0,29.51,SSW,201,3.0,7.0,98,0.07,,,0.08,,2013-02-15 09:01:00,
2013-02-15 11:11:00,71.0,70.0,29.51,SSW,201,3.0,7.0,98,0.07,,,0.08,,2013-02-15 09:11:00,
2013-02-15 11:21:00,72.0,71.0,29.52,SSW,207,3.0,6.0,98,0.07,,,0.08,,2013-02-15 09:21:00,
2013-02-15 11:31:00,74.0,73.0,29.52,SSE,159,3.0,5.0,98,0.07,,,0.08,,2013-02-15 09:31:00,
2013-02-15 11:41:00,74.0,73.0,29.52,SSE,159,3.0,5.0,98,0.07,,,0.08,,2013-02-15 09:41:00,
2013-02-15 11:51:00,75.0,74.0,29.51,SSE,149,4.0,6.0,98,0.02,,,0.08,,2013-02-15 09:51:00,
2013-02-15 12:01:00,76.0,75.0,29.51,SSE,155,4.0,9.0,98,0.00,,,0.08,,2013-02-15 10:01:00,
2013-02-15 12:11:00,76.0,75.0,29.51,SSE,155,4.0,9.0,98,0.00,,,0.08,,2013-02-15 10:11:00,
2013-02-15 12:21:00,78.0,77.0,29.51,South,183,6.0,9.0,98,0.00,,,0.08,,2013-02-15 10:21:00,
2013-02-15 12:31:00,78.0,77.0,29.51,SSE,156,5.0,8.0,98,0.00,,,0.08,,2013-02-15 10:31:00,
2013-02-15 12:41:00,78.0,77.0,29.51,SSE,156,5.0,8.0,98,0.00,,,0.08,,2013-02-15 10:41:00,
2013-02-15 12:51:00,78.0,77.0,29.51,SSE,156,5.0,8.0,98,0.00,,,0.08,,2013-02-15 10:51:00,
2013-02-15 13:01:00,79.0,78.0,29.51,ESE,119,6.0,8.0,98,0.00,,,0.08,,2013-02-15 11:01:00,
2013-02-15 13:11:00,79.0,78.0,29.51,ESE,119,6.0,8.0,98,0.00,,,0.08,,2013-02-15 11:11:00,
2013-02-15 13:22:00,77.0,76.0,29.51,South,170,6.0,8.0,98,0.00,,,0.08,,2013-02-15 11:22:00,
2013-02-15 13:31:00,79.0,78.0,29.50,South,172,6.0,10.0,98,0.00,,,0.08,,2013-02-15 11:31:00,
2013-02-15 13:42:00,79.0,78.0,29.50,South,172,6.0,10.0,98,0.00,,,0.08,,2013-02-15 11:42:00,
2013-02-15 13:52:00,79.0,70.0,29.50,SSW,210,7.0,10.0,75,0.00,,,0.08,,2013-02-15 11:52:00,
2013-02-15 14:01:00,79.0,78.0,29.50,SE,134,7.0,10.0,98,0.00,,,0.08,,2013-02-15 12:01:00,
2013-02-15 14:11:00,79.0,78.0,29.50,SE,134,7.0,10.0,98,0.00,,,0.08,,2013-02-15 12:11:00,
2013-02-15 14:21:00,79.0,78.0,29.50,SE,134,7.0,10.0,98,0.00,,,0.08,,2013-02-15 12:21:00,
2013-02-15 14:31:00,79.0,65.0,29.49,SSE,158,10.0,12.0,62,0.00,,,0.08,,2013-02-15 12:31:00,
2013-02-15 14:42:00,79.0,65.0,29.49,SSE,158,10.0,12.0,62,0.00,,,0.08,,2013-02-15 12:42:00,
2013-02-15 14:52:00,79.0,65.0,29.49,SSE,158,10.0,12.0,62,0.00,,,0.08,,2013-02-15 12:52:00,
2013-02-15 15:02:00,80.0,65.0,29.49,South,189,9.0,12.0,60,0.00,,,0.08,,2013-02-15 13:02:00,
2013-02-15 15:11:00,80.0,65.0,29.49,South,189,9.0,12.0,60,0.00,,,0.08,,2013-02-15 13:11:00,
2013-02-15 15:21:00,82.0,68.0,29.48,SSE,152,9.0,12.0,62,0.00,,,0.08,,2013-02-15 13:21:00,
2013-02-15 15:31:00,81.0,70.0,29.49,SSE,158,8.0,12.0,70,0.00,,,0.08,,2013-02-15 13:31:00,
2013-02-15 15:41:00,81.0,70.0,29.49,SSE,158,8.0,12.0,70,0.00,,,0.08,,2013-02-15 13:41:00,
2013-02-15 15:51:00,80.0,69.0,29.48,SE,145,7.0,15.0,70,0.00,,,0.08,,2013-02-15 13:51:00,
2013-02-15 16:01:00,81.0,68.0,29.48,SE,131,7.0,13.0,65,0.00,,,0.08,,2013-02-15 14:01:00,
2013-02-15 16:11:00,81.0,68.0,29.48,SE,131,7.0,13.0,65,0.00,,,0.08,,2013-02-15 14:11:00,
2013-02-15 16:21:00,81.0,68.0,29.48,SE,131,7.0,13.0,65,0.00,,,0.08,,2013-02-15 14:21:00,
2013-02-15 16:32:00,81.0,68.0,29.48,SE,131,7.0,13.0,65,0.00,,,0.08,,2013-02-15 14:32:00,
2013-02-15 16:41:00,81.0,68.0,29.48,SE,131,7.0,13.0,65,0.00,,,0.08,,2013-02-15 14:41:00,
2013-02-15 16:52:00,81.0,65.0,29.48,ESE,119,9.0,12.0,59,0.00,,,0.08,,2013-02-15 14:52:00,
2013-02-15 17:01:00,81.0,65.0,29.48,ESE,119,9.0,12.0,59,0.00,,,0.08,,2013-02-15 15:01:00,
2013-02-15 17:11:00,81.0,65.0,29.48,ESE,119,9.0,12.0,59,0.00,,,0.08,,2013-02-15 15:11:00,
2013-02-15 17:21:00,80.0,67.0,29.48,South,170,7.0,12.0,64,0.00,,,0.08,,2013-02-15 15:21:00,
2013-02-15 17:32:00,79.0,65.0,29.48,South,179,9.0,12.0,62,0.00,,,0.08,,2013-02-15 15:32:00,
2013-02-15 17:41:00,79.0,65.0,29.48,South,179,9.0,12.0,62,0.00,,,0.08,,2013-02-15 15:41:00,
2013-02-15 17:51:00,79.0,65.0,29.48,South,179,9.0,12.0,62,0.00,,,0.08,,2013-02-15 15:51:00,
2013-02-15 18:01:00,79.0,65.0,29.48,South,179,9.0,12.0,62,0.00,,,0.08,,2013-02-15 16:01:00,
2013-02-15 18:11:00,79.0,65.0,29.48,South,179,9.0,12.0,62,0.00,,,0.08,,2013-02-15 16:11:00,
2013-02-15 18:32:00,79.0,61.0,29.49,SSE,148,6.0,10.0,54,0.00,,,0.08,,2013-02-15 16:32:00,
2013-02-15 18:43:00,79.0,61.0,29.49,SSE,148,6.0,10.0,54,0.00,,,0.08,,2013-02-15 16:43:00,
2013-02-15 18:52:00,79.0,59.0,29.49,ESE,112,7.0,9.0,50,0.00,,,0.08,,2013-02-15 16:52:00,
2013-02-15 19:01:00,78.0,68.0,29.49,SE,141,5.0,8.0,72,0.00,,,0.08,,2013-02-15 17:01:00,
2013-02-15 19:11:00,77.0,76.0,29.50,South,176,5.0,8.0,98,0.00,,,0.08,,2013-02-15 17:11:00,
2013-02-15 19:21:00,77.0,76.0,29.50,South,176,5.0,8.0,98,0.00,,,0.08,,2013-02-15 17:21:00,
2013-02-15 19:31:00,75.0,74.0,29.50,SE,135,6.0,8.0,98,0.00,,,0.08,,2013-02-15 17:31:00,
2013-02-15 19:41:00,75.0,74.0,29.50,SE,135,6.0,8.0,98,0.00,,,0.08,,2013-02-15 17:41:00,
2013-02-15 19:52:00,75.0,74.0,29.50,SE,135,6.0,8.0,98,0.00,,,0.08,,2013-02-15 17:52:00,
2013-02-15 20:01:00,74.0,73.0,29.51,SE,146,5.0,8.0,98,0.00,,,0.08,,2013-02-15 18:01:00,
2013-02-15 20:11:00,74.0,73.0,29.51,SE,146,5.0,8.0,98,0.00,,,0.08,,2013-02-15 18:11:00,
2013-02-15 20:21:00,74.0,73.0,29.52,SE,139,4.0,7.0,98,0.00,,,0.08,,2013-02-15 18:21:00,
2013-02-15 20:31:00,74.0,73.0,29.52,SE,139,4.0,7.0,98,0.00,,,0.08,,2013-02-15 18:31:00,
2013-02-15 20:41:00,74.0,73.0,29.52,SE,139,4.0,7.0,98,0.00,,,0.08,,2013-02-15 18:41:00,
2013-02-15 20:52:00,73.0,72.0,29.52,SSE,150,5.0,6.0,98,0.00,,,0.08,,2013-02-15 18:52:00,
2013-02-15 21:01:00,73.0,72.0,29.53,ESE,112,5.0,6.0,98,0.00,,,0.08,,2013-02-15 19:01:00,
2013-02-15 21:11:00,73.0,72.0,29.53,ESE,112,5.0,6.0,98,0.00,,,0.08,,2013-02-15 19:11:00,
2013-02-15 21:21:00,73.0,72.0,29.53,SE,125,5.0,6.0,98,0.00,,,0.08,,2013-02-15 19:21:00,
2013-02-15 21:32:00,73.0,72.0,29.53,ESE,114,4.0,6.0,98,0.00,,,0.08,,2013-02-15 19:32:00,
2013-02-15 21:41:00,73.0,72.0,29.53,ESE,114,4.0,6.0,98,0.00,,,0.08,,2013-02-15 19:41:00,
2013-02-15 21:51:00,73.0,72.0,29.53,ESE,112,4.0,7.0,98,0.00,,,0.08,,2013-02-15 19:51:00,
2013-02-15 22:01:00,73.0,72.0,29.54,East,100,4.0,6.0,98,0.00,,,0.08,,2013-02-15 20:01:00,
2013-02-15 22:11:00,73.0,72.0,29.54,East,100,4.0,6.0,98,0.00,,,0.08,,2013-02-15 20:11:00,
2013-02-15 22:21:00,73.0,72.0,29.54,East,100,4.0,6.0,98,0.00,,,0.08,,2013-02-15 20:21:00,
2013-02-15 22:32:00,73.0,72.0,29.54,ESE,111,5.0,7.0,98,0.00,,,0.08,,2013-02-15 20:32:00,
2013-02-15 22:42:00,73.0,72.0,29.54,ESE,111,5.0,7.0,98,0.00,,,0.08,,2013-02-15 20:42:00,
2013-02-15 22:52:00,73.0,72.0,29.54,ESE,111,5.0,7.0,98,0.00,,,0.08,,2013-02-15 20:52:00,
2013-02-15 23:01:00,73.0,72.0,29.54,ESE,111,5.0,7.0,98,0.00,,,0.08,,2013-02-15 21:01:00,
2013-02-15 23:11:00,73.0,72.0,29.54,ESE,111,5.0,7.0,98,0.00,,,0.08,,2013-02-15 21:11:00,
2013-02-15 23:32:00,73.0,72.0,29.54,ESE,106,5.0,9.0,98,0.00,,,0.08,,2013-02-15 21:32:00,
2013-02-15 23:42:00,73.0,72.0,29.54,ESE,106,5.0,9.0,98,0.00,,,0.08,,2013-02-15 21:42:00,
2013-02-15 23:52:00,73.0,72.0,29.54,ESE,102,5.0,9.0,98,0.00,,,0.08,,2013-02-15 21:52:00,